Location: Pasarilla del Rebollar
(40.6790°N, 5.0062°W)
Time: 11:15:48
(UTC+00:00)

SL-16 R/B - Pass Details

Date: 22 April 2026
Orbit: 841 x 845 km, 71.0° (Epoch: 15 May)

Event Time Altitude Azimuth Distance (km) Brightness Sun altitude
Rises 02:59:51 0° 330° (NNW) 3,411 5.6 -25.3°
Reaches altitude 10° 03:02:22 10° 325° (NW) 2,472 4.7 -25.0°
Enters shadow 03:06:46 43° 284° (WNW) 1,170 2.7 -24.4°
